Weather in Beaune

France     47°01′40″N   4°50′23″E
temp.,
°C
wind,
m/s
gust,
m/s
humid.,
%
clouds,
%
prec.,
mm/h
press.,
hPa
HPBL,
m
2 december, thu
thu201:00+5wsw4887100 0.2 1005698
04:00+5wsw3790100 0.0 1004605
07:00+4wsw269293 0.4 1004340
10:00+3nw51096100 1.6 1006792
13:00+3nw5108484 1.1 1008933
16:00+2nw5107448 0.0 1010954
19:00−1nw410855 0.1 1012372
22:00−1nw4109033 0.0 1014453
3 december, fri
fri301:00+1n4777100 0.0 1016822
04:00−1wnw229488 0.0 101615
07:00−2wnw229485 0.0 101841
10:000wsw12827 0.0 1019217
13:00+3sw3468100 0.0 1017716
16:00+2ssw4875100 0.0 1015633
19:00+1s51287100 0.4 1013531
22:000s51397100 2.1 1011466
4 december, sat
sat401:00+1s41099100 5.3 1009304
04:00+4s41299100 3.8 1005498
07:00+7ssw51297100 8.2 1003540
10:00+9sw51195100 1.3 1003536
13:00+8w499280 3.8 1004633
16:00+7w6128579 0.3 1005810
19:00+4wnw7139054 2.1 10091045
22:00+3wsw4108826 0.0 1011564
5 december, sun
sun501:00+3sw379299 0.1 1011654
04:00+2sw3793100 0.2 1010678
07:00+2w2797100 0.6 1010560
10:00+2nw3586100 0.1 1011706
13:00+4w347994 0.1 1011709
16:00+3wsw2278100 0.1 1010207
19:00+2ssw1198100 0.9 1012187
22:00+2nne2299100 0.9 1015167
6 december, mon
mon601:000nnw249491 0.9 1017222
04:000nnw369346 0.0 1019276
07:00+1n358373 0.0 1021181
10:00+3n258166 0.0 1024474
13:00+4n347521 0.0 1024710
16:00+3nnw248627 0.0 1026164
19:00+2n118589 0.0 102722
22:00+2sse008063 0.0 102810